Regional Weather Roundup
Issued by NWS Glasgow, MT

Home | Current Version | Previous Version | Text Only | Print | Product List | Glossary On
Versions: 1 2 3 4 5 6 7 8 9 10 11 12 13 14 15 16 17 18 19 20 21 22 23 24 25 26 27 28 29 30 31 32 33 34 35 36 37 38 39 40 41 42 43 44 45 46 47 48 49 50
000
ASUS45 KGGW 030815
RWRGGW
HOURLY REGIONAL WEATHER ROUNDUP FOR NORTHEAST MONTANA
NATIONAL WEATHER SERVICE GLASGOW MONTANA
200 AM MDT TUE MAY 03 2016

NOTE: "FAIR" INDICATES FEW OR NO CLOUDS BELOW 12,000 FEET WITH NO
SIGNIFICANT WEATHER AND/OR OBSTRUCTIONS TO VISISBILITY.

NORTHEAST MONTANA


CITY           SKY/WX    TMP DP  RH WIND       PRES   REMARKS
GLASGOW        CLEAR     49  37  63 N6        30.04R
PLENTYWOOD       N/A     55  25  31 N3          N/A
WOLF POINT     CLEAR     44  37  76 CALM      30.03S
JORDAN           N/A     46  42  86 W7        30.06S
WINNETT          N/A     42  38  85 S3          N/A
SIDNEY         CLEAR     41  32  70 CALM      30.03S
GLENDIVE       CLEAR     45  34  65 W5        30.07S
SCOBEY           N/A     41  24  51 CALM      30.03S
OPHEIM           N/A     59  28  31 CALM      29.83S

FORT PECK REPORTS


CITY           SKY/WX    TMP DP  RH WIND       PRES   REMARKS
FORT PECK        N/A     52  42  69 W3          N/A
THE PINES        N/A     53  40  61 SW3G12      N/A

SOUTHEAST MONTANA


CITY           SKY/WX    TMP DP  RH WIND       PRES   REMARKS
BILLINGS       CLEAR     55  35  47 SW12      30.13F
MILES CITY     CLEAR     51  41  68 W8        30.05F
BAKER          CLEAR     42  34  73 CALM      30.06F
LIVINGSTON     CLEAR     40  30  67 NW5       30.18R

CENTRAL MONTANA


CITY           SKY/WX    TMP DP  RH WIND       PRES   REMARKS
HAVRE          CLEAR     45  40  82 SW6       30.07S
LEWISTOWN      CLEAR     43  32  65 SE5       30.14F
GREAT FALLS    CLEAR     42  33  70 SW7       30.11S
CUT BANK       CLEAR     49  36  61 SE7       30.10S
HELENA         CLEAR     49  25  39 CALM      30.13S
BUTTE          CLEAR     38  27  64 SE5       30.21R
BOZEMAN        CLEAR     41  30  65 SE5       30.17S

WESTERN MONTANA


CITY           SKY/WX    TMP DP  RH WIND       PRES   REMARKS
MISSOULA       CLEAR     48  37  65 NE3       30.13R
KALISPELL      NOT AVBL

NORTH DAKOTA


CITY           SKY/WX    TMP DP  RH WIND       PRES   REMARKS
WILLISTON      CLEAR     42  34  73 CALM      30.01F
DICKINSON      CLEAR     36  30  79 W6        30.02R
MINOT          CLOUDY    56  36  47 SW12      29.97S
BISMARCK       CLOUDY    40  40 100 CALM      30.01F

SOUTHERN SASKATCHEWAN


CITY           SKY/WX    TMP DP  RH WIND       PRES   REMARKS
REGINA         CLEAR     45  27  49 W5        30.00S
ESTEVAN        CLEAR     37  32  81 W5        29.98F
SWIFT CURRENT  CLEAR     52  34  50 S10       30.04S




USA.gov is the U.S. government's official web portal to all federal, state and local government web resources and services.